TITAN 3C TRANSTAGE DEB, 43513

Orbit data source: Space-Track

TITAN 3C TRANSTAGE DEB, 43513 is space debris in GEO originally from a launch on Sun, 09 Feb 1969 UTC launched from the Air Force Eastern Test Range (AFETR). Debris objects in space refer to the collection of defunct objects orbiting the Earth. Examples of debris include non-operational satellites, rocket bodies, and fragments generated from explosions, collisions, or faulty payload assembly.

Loading next visibility...
Identifier
43513, 1969-013R
Orbit
GEO
Country
Flag of USUS
Related business
Manufacturer
Martin Marietta
Mission
Spacecraft
Bus & Motor
Unknown
Mass
Unknown
Launch date (UTC)
1969-02-09 (57 years ago)
Launch vehicle
Unknown
Launch site
Air Force Eastern Test Range (AFETR)
Object type
Payload
Rocket body
Debris
Shape & HBR
Unknown shape, 1.1 m
Radar Cross Section
RCS unknown

Expand to show TLE details & history
Last TLE update: 2 days ago

TLE from 2 days ago
0 TITAN 3C TRANSTAGE DEB
1 43513U 69013R   25287.55698510 -.00000104  00000-0  00000-0 0  9994
2 43513   1.0986 161.2569 0040512 212.2814 148.3124  0.95266571 26040
Epoch: 2025-10-14T13:22Z
TLE epoch observation values (Epoch: 2025-10-14T13:22:03.512Z)
Latitude
Longitude
-61.782°
Altitude
37,401.446 km
Speed
3.012 km/s
True Right ascension
10h 48m 18s
True Declination
0° 00' 00"
Sunlit
Object was in daylight at epoch
Visualization orbit readout
Latitude
Unknown
Longitude
Unknown
Altitude
Unknown
Speed
Unknown
Apparent Right ascension
Unknown
Apparent Declination
Unknown
Sunlit
N/A
Visualization observer readout
Local Sidereal Time
21:50:52
Azimuth
Unknown
Elevation
Unknown
Doppler factor
Unknown
Orbital elements
Apogee altitude
37,428.608 km
Perigee altitude
37,075.101 km
Semi-major axis
43,629.991 km
Eccentricity
0.00405
Inclination
1.0986°
RAAN
161.2569°
Arg. of periapsis
212.2814°
True anomaly
148.55521°
Mean anomaly
148.3124°
Eccentric anomaly
148.43391°
Mean motion
0.23816 °/min
Orbital period
1,511.6 mins
BSTAR
0
Loading maneuver chart data...
Computing Atmospheric mass density...

Documentation

Showing up to 5 results
|